This is the latest recevied weather packets stored in our database for station/object N2JWC. If no packets are shown the sender has not sent any weather packets the latest 10 day(s).
| Time | Temp. | Humidity | Pressure | Rain* | Wind** | Luminosity | Snow |
|---|---|---|---|---|---|---|---|
| 1788551156 | 35.56° C | 56% | 1019 hPa | 0 mm | - | 88 W/m² | - |
| 1788550851 | 35.56° C | 62% | 1019.1 hPa | 0 mm | - | 85 W/m² | - |
| 1788550545 | 36.11° C | 58% | 1019.2 hPa | 0 mm | - | 250 W/m² | - |
| 1788550242 | 36.11° C | 58% | 1019.5 hPa | 0 mm | - | 514 W/m² | - |
| 1788549941 | 36.67° C | 56% | 1019.6 hPa | 0 mm | - | 591 W/m² | - |
| 1788549637 | 36.67° C | 55% | 1019.5 hPa | 0 mm | - | 567 W/m² | - |
| 1788549334 | 37.22° C | 58% | 1019.7 hPa | 0 mm | - | 560 W/m² | - |
| 1788549030 | 36.67° C | 59% | 1020 hPa | 0 mm | - | 592 W/m² | - |
| 1788548725 | 37.22° C | 55% | 1019.8 hPa | 0 mm | - | 636 W/m² | - |
| 1788548422 | 36.67° C | 58% | 1019.8 hPa | 0 mm | - | 630 W/m² | - |
| 1788548118 | 36.11° C | 57% | 1020 hPa | 0 mm | - | 650 W/m² | - |
| 1788547813 | 36.67° C | 56% | 1020 hPa | 0 mm | - | 690 W/m² | - |
| 1788547513 | 36.67° C | 56% | 1020.3 hPa | 0 mm | - | 684 W/m² | - |
| 1788547208 | 36.67° C | 65% | 1020.2 hPa | 0 mm | - | 682 W/m² | - |
| 1788546903 | 36.67° C | 57% | 1020.3 hPa | 0 mm | - | 667 W/m² | - |
| 1788546598 | 36.11° C | 56% | 1020.4 hPa | 0 mm | - | 662 W/m² | - |
| 1788546294 | 36.11° C | 59% | 1020.4 hPa | 0 mm | - | 656 W/m² | - |
| 1788545993 | 35.56° C | 59% | 1020.3 hPa | 0 mm | - | 661 W/m² | - |
| 1788545689 | 35° C | 62% | 1020.3 hPa | 0 mm | - | 686 W/m² | - |
| 1788545384 | 35° C | 60% | 1020.3 hPa | 0 mm | - | 678 W/m² | - |
| 1788545078 | 36.11° C | 64% | 1020.3 hPa | 0 mm | - | 537 W/m² | - |
| 1788544778 | 36.11° C | 64% | 1020.5 hPa | 0 mm | - | 705 W/m² | - |
| 1788544478 | 35.56° C | 61% | 1020.8 hPa | 0 mm | - | 171 W/m² | - |
| 1788544178 | 36.11° C | 61% | 1020.8 hPa | 0 mm | - | 674 W/m² | - |
| 1788543873 | 36.11° C | 61% | 1020.7 hPa | 0 mm | - | 688 W/m² | - |
* Rain latest hour (hover to see other rain measurements)
** Current wind speed in m/s (hover to see current wind gust speed)